星链-36518(STARLINK-36518)

导读 | 豆包AI

STARLINK-36518是美国SpaceX星链星座的一颗卫星,于2026年1月14日发射入轨。星链项目旨在构建全球卫星互联网星座,为全球各地提供高速互联网接入服务,尤其服务偏远地区与网络基础设施薄弱区域。这颗卫星加入后,进一步扩充了星链星座的规模,提升星座服务覆盖能力与网络稳定性,推动全球卫星互联网络建设。

基本信息
目录编号:
67453
目录名称:
STARLINK-36518
国际标识:
2026-008J
轨道中心:
EARTH
卫星名称:
星链-36518
卫星全名:
星链-36518(STARLINK-36518)
卫星状态:
在轨 (已飞行80 天)
发射日期:
2026-01-14 UTC
国别 :
美国 (US)
星等 :
--
轨道信息
数据来源 国际轨道数据
星历时间: 2026-04-03T13:32:26+0800
18小时前
查看轨道信息
半长轴: 6861.093km
偏心率: 0.0002654
轨道倾角: 43.002°
近地点辐角 282.043°
升交点赤经 66.766°
平近点角 78.013°
近地点: 481.135km
远地点: 484.777km
周期: 94.265分钟
每日圈数: 15.276111
详细信息
固有亮度:
5
最大亮度:
2.5
卫星平台:
Starlink V1.0
覆盖范围:
全球
运营商:
太空探索技术公司
运营商所在国:
美国
制造商(研发单位):
太空探索技术公司
制造商所在国:
美国
使用方式:
暂无
卫星简介
Starlink 计划是 SpaceX 推出的全球卫星互联网项目,通过发射低轨道卫星,为全球尤其是偏远地区提供高速、低延迟的互联网服务。自 2019 年起,Starlink 已部署数千颗卫星,旨在缩小全球数字鸿沟,推动互联网普及。该项目还为军事、航空等行业提供通信支持,带来广泛经济效益。
2D轨道图
3D轨道图
轨道高度分析图
轨道倾角分析图
轨道综合分析图
查看轨道综合分析图